Location: ?????????
(54.7630°N, 39.4991°E)
Time: 10:46:16
(UTC+00:00)

CZ-4B DEB - Pass Details

Date: 14 April 2026
Orbit: 834 x 853 km, 98.9° (Epoch: 10 May)

Event Time Altitude Azimuth Distance (km) Brightness Sun altitude
Rises 17:11:04 0° 163° (SSE) 3,385 6.9 -7.1°
Reaches altitude 10° 17:13:24 10° 164° (SSE) 2,457 6.2 -7.4°
Maximum altitude 17:18:52 84° 253° (WSW) 858 4.3 -8.1°
Drops below altitude 10° 17:24:25 10° 342° (NNW) 2,487 7.4 -8.8°
Sets 17:26:48 0° 344° (NNW) 3,429 8.2 -9.1°
